Regional Weather Roundup
Issued by NWS

Home | Current Version | Previous Version | Graphics & Text | Print | Product List | Glossary On
Versions: 1 2 3 4 5 6 7 8 9 10 11 12 13 14 15 16 17 18 19 20 21 22 23 24 25 26 27 28 29 30 31 32 33 34 35 36 37 38 39 40 41 42 43 44 45 46 47 48 49 50
000
ASUS43 KDTX 032310
RWRMI
MICHIGAN HOURLY REGIONAL WEATHER ROUNDUP
NATIONAL WEATHER SERVICE DETROIT/PONTIAC MI
700 PM EDT FRI JUL 03 2015

NOTE: "FAIR" INDICATES FEW OR NO CLOUDS BELOW 12,000 FEET WITH NO
SIGNIFICANT WEATHER AND/OR OBSTRUCTION TO VISIBILITY.

MIZ047>049-052>055-059>063-066>070-074>076-081>083-040000-
SOUTHEAST LOWER MICHIGAN

CITY           SKY/WX    TMP DP  RH WIND       PRES   REMARKS
ADRIAN         MOSUNNY   72  57  59 SE6       29.93S
ALMA           SUNNY     73  43  33 CALM      29.93F
ANN ARBOR      MOSUNNY   73  54  51 SW5       29.91F
BAD AXE        MOSUNNY   70  47  44 N7        29.93F
CARO           MOSUNNY   72  50  46 CALM      29.92S
DETROIT CITY   PTSUNNY   71  53  52 SE6       29.92F
DETROIT        PTSUNNY   73  55  53 SE5       29.92F
FLINT          MOSUNNY   76  45  33 W6        29.92F
GROSSE ILE     MOSUNNY   70  57  64 S5        29.91F
HILLSDALE      SUNNY     72  53  50 NE3       29.93S
HOWELL         SUNNY     72  49  44 CALM      29.92F

CITY           SKY/WX    TMP DP  RH WIND       PRES   REMARKS
JACKSON        SUNNY     73  53  49 CALM      29.92F
LAMBERTVILLE   MOSUNNY   72  53  52 E3        29.93S
LANSING        SUNNY     74  50  42 N6        29.92F
LAPEER         FAIR      74  48  39 CALM      29.92F
MASON          SUNNY     70  54  55 CALM      29.92F
MONROE         MOSUNNY   71  52  51 E5        29.91F
MT. CLEMENS    PTSUNNY   71  55  58 SE7       29.90F
PONTIAC        MOSUNNY   74  50  42 CALM      29.91F
PORT HOPE        N/A     64  53  67 E8        29.92F
PORT HURON     PTSUNNY   73  57  56 CALM      29.92F
TRI CITIES     SUNNY     75  44  33 NW10      29.93F
MIDLAND        FAIR      74  44  35 CALM      29.92S
TROY           PTSUNNY   75  54  47 SE8       29.93F
SAGINAW HB     MOSUNNY   72  43  35 N3        29.92F
$$
MIZ043>046-050>051-056>058-064>065-071>073-077>080-040000-
SOUTHWEST LOWER MICHIGAN

CITY           SKY/WX    TMP DP  RH WIND       PRES   REMARKS
BATTLE CREEK   SUNNY     76  53  44 NW3       29.92F
BENTON HARBOR  SUNNY     68  55  63 N8        29.93S
BIG RAPIDS     SUNNY     73  45  36 S5        29.92F
COLDWATER      SUNNY     73  53  51 NE3       29.92S
FREMONT        FAIR      73  49  43 NW8       29.92F
HOLLAND        SUNNY     71  53  52 NW7       29.93F
GRAND RAPIDS   PTSUNNY   75  47  36 NE3       29.92F
IONIA          FAIR      73  50  44 NE5       29.92S
KALAMAZOO      SUNNY     75  52  44 CALM      29.92F
LUDINGTON      MOSUNNY   66  51  58 W3        29.94S
MARSHALL       SUNNY     73  53  49 CALM      29.91F
MOUNT PLEASANT SUNNY     73  46  39 CALM      29.92F
MUSKEGON       PTSUNNY   71  46  40 W9        29.93F
SOUTH HAVEN    SUNNY     68  56  64 NW8       29.93S
$$
MIZ016>042-040000-
NORTHERN LOWER MICHIGAN

CITY           SKY/WX    TMP DP  RH WIND       PRES   REMARKS
ALPENA         MOSUNNY   73  48  41 S9        29.90F
BEAVER ISLAND  LGT RAIN  63  51  65 SW3       29.92R
BELLAIRE       MOSUNNY   73  52  47 W3        29.91S
CADILLAC       SUNNY     72  55  55 W7        29.93S
CHARLEVOIX     PTSUNNY   69  52  53 SW10      29.94S
FRANKFORT      PTSUNNY   69  41  36 SW5       29.92S
GAYLORD        MOSUNNY   71  52  50 W7        29.92F
GRAYLING       MOSUNNY   73  52  48 SW6       29.93S
HARBOR SPRINGS MOSUNNY   69  53  57 W3        29.91S
HOUGHTON LAKE  SUNNY     73  51  46 S7        29.92F
MANISTEE       MOSUNNY   68  46  45 W6        29.93F
OSCODA         SUNNY     70  45  40 S6        29.92F
PELLSTON       PTSUNNY   69  52  54 W6        29.92R
ROGERS CITY    MOSUNNY   69  55  59 NE5       29.91S
TRAVERSE CITY  CLOUDY    74  51  44 W6        29.90S
$$
MIZ007>008-015-040000-
EASTERN UPPER MICHIGAN

CITY           SKY/WX    TMP DP  RH WIND       PRES   REMARKS
KINROSS        CLOUDY    63  55  77 SW8       29.90S
MACKINAC ISLAN CLOUDY    63  53  69 W12G17    29.90S
NEWBERRY       CLOUDY    59  55  86 SW13      29.88S FOG
S. S. MARIE    PTSUNNY   68  55  63 SW9       29.87S
MUNISING         N/A     70  61  73 S5        29.83S
$$
MIZ004>006-011>014-085-040000-
CENTRAL UPPER MICHIGAN

CITY           SKY/WX    TMP DP  RH WIND       PRES   REMARKS
MANISTIQUE     CLOUDY    58  52  80 S8        29.88S
ESCANABA       MOSUNNY   70  59  68 SW9       29.85S
MENOMINEE      PTSUNNY   73  52  46 SW9       29.87S
SAWYER-GWINN   PTSUNNY   73  57  56 W13G18    29.86R
$$
MIZ001>003-009>011-084-040000-
WESTERN UPPER MICHIGAN

CITY           SKY/WX    TMP DP  RH WIND       PRES   REMARKS
IRON MOUNTAIN  CLOUDY    73  59  61 SW5       29.86S
HOUGHTON       MOSUNNY   72  59  63 W18       29.84R
COPPER HARBOR    N/A     55  49  80 N10       29.85R
IRONWOOD       MOSUNNY   73  64  73 SW3       29.84S
$$

ABBREVIATIONS USED IN REMARKS
   TC - TEMPERATURE IN CELSIUS
  WCI - WIND CHILL INDEX
   HX - HEAT INDEX
  VSB - VISIBILITY




USA.gov is the U.S. government's official web portal to all federal, state and local government web resources and services.